{"data":{"norad_id":55491,"intl_designator":"2023-015AU","name":"STARLINK-5364","alt_names":[],"object_type":"PAYLOAD","status":"ACTIVE","operator":null,"country":"US","launch_date":"2023-02-02","launch_site_code":"AFETR","launch_vehicle":null,"mission":null,"orbit_class":"UNKNOWN","rcs_meters":null,"size_class":null,"mass_kg":null,"dimensions":null,"purposes":["comms"],"wikipedia_slug":null,"has_3d_model":false,"image_url":null,"decayed_at":null,"tle_current":{"epoch":"2026-09-20T19:01:43.379616Z","epoch_age_seconds":75088,"freshness":"FRESH","line1":"1 55491U 23015AU  26263.79286319  .00000126  00000+0  14106-4 0  9993","line2":"2 55491  43.0045 299.5667 0001196 275.2301  84.8414 15.27575383200640","mean_motion":15.27575383,"eccentricity":0.0001196,"inclination_deg":43.0045,"raan_deg":299.5667,"arg_perigee_deg":275.2301,"mean_anomaly_deg":84.8414,"bstar":1.4106e-5,"rev_number":20064,"period_min":94.267033628939,"perigee_km":482.24232152288,"apogee_km":483.88352054399,"semimajor_km":6861.1999210334,"source":"CELESTRAK","updated_at":"2026-09-21T09:00:33.258952Z"}}}